Hourly Weather Roundup
Issued by NWS Central Illinois

Home | Current Version | Previous Version | Text Only | Print | Product List | Glossary On
Versions: 1 2 3 4 5 6 7 8 9 10 11 12 13 14 15 16 17 18 19 20 21 22 23 24 25 26 27 28 29 30 31 32 33 34 35 36 37 38 39 40 41 42 43 44 45 46 47 48 49 50
000
NZUS43 KILX 232010
HWRILX

Area Weather Roundup
National Weather Service Lincoln IL
300 PM CDT MON OCT 23 2017

NOTE:  "FAIR" indicates few or no clouds below 12,000 feet, with
       no sigificant weather and/or obstructions to visibility.


CITY           SKY/WX    TMP DP  RH WIND       PRES   REMARKS
Bloomington    CLOUDY    53  47  79 W8        29.76F
Champaign      NOT AVBL
Danville       LGT RAIN  50  47  89 NW9       29.71F
Decatur        CLOUDY    52  46  80 NW6       29.77F
Effingham      LGT RAIN  54  51  90 W7        29.81R
Flora          CLOUDY    58  50  75 NW9       29.81R
Jacksonville   SUNNY     69  41  36 W10G16    29.76F
Lacon          CLOUDY    55  46  73 W6        29.74F
Lawrenceville  CLOUDY    57  52  83 W12       29.77R
Litchfield     MOSUNNY   64  42  44 W6        29.78F
$$


CITY           SKY/WX    TMP DP  RH WIND       PRES   REMARKS
Lincoln        CLOUDY    58  45  61 NW5       29.77F
Macomb         MOSUNNY   64  46  52 W15       29.78F
Mattoon        CLOUDY    52  52 100 NW10      29.76F
Mt Carmel AP   CLOUDY    57  51  81 NW18G24   29.78R
Olney-Noble AP CLOUDY    55  53  93 W13       29.81R
Paris AP       LGT RAIN  52  49  91 NW5       29.78R
Peoria         CLOUDY    61  45  55 W6        29.76F
Pontiac        CLOUDY    53  53  97 NW6       29.75F
Rantoul        CLOUDY    54  51  90 W10       29.76R
Robinson       CLOUDY    54  51  89 NW14      29.78R
Springfield    MOSUNNY   62  47  57 E6        29.77F
Taylorville    CLOUDY    60  39  46 NW6       29.77F
$$

...REGIONAL REPORTS...


CITY           SKY/WX    TMP DP  RH WIND       PRES   REMARKS
Chicago O`Hare CLOUDY    54  49  83 NW9       29.69F
Kankakee       CLOUDY    51  50  97 NW5       29.72F
Moline         CLOUDY    61  48  62 W12       29.74F
Mount Sterling CLOUDY    66  40  39 W13       29.77S
Mount Vernon   CLOUDY    57  45  64 W5        29.83S
Pittsfield     CLOUDY    68  43  39 W7        29.78F
Quincy         CLOUDY    61  44  53 W17       29.79R
Rockford       CLOUDY    54  42  64 W5        29.74F
$$


CITY           SKY/WX    TMP DP  RH WIND       PRES   REMARKS
Burlington     MOSUNNY   61  44  53 W9        29.77S
Cedar Rapids   LGT RAIN  54  46  74 NW15      29.78F
Des Moines     PTSUNNY   66  38  35 NW25G32   29.85F
Kirksville     LGT RAIN  60  46  59 N16G24    29.87R
Ottumwa        CLOUDY    57  46  66 NW17      29.83F
St Louis       MOSUNNY   68  45  43 SW8       29.80F
$$


CITY           SKY/WX    TMP DP  RH WIND       PRES   REMARKS
Terre Haute    LGT RAIN  52  48  86 NW16G26   29.73F
Evansville     LGT RAIN  54  52  93 W10       29.79R FOG
Indianapolis   LGT RAIN  57  55  93 W14       29.68S
Lafayette      LGT RAIN  52  51  97 W15G23    29.69R FOG
Madison        CLOUDY    56  43  61 S5        29.70F
Milwaukee      CLOUDY    54  49  83 N8        29.69F
$$






USA.gov is the U.S. government's official web portal to all federal, state and local government web resources and services.